Waynesville, MO

8:03 PM CDT on July 28, 2016 (GMT -0500)
Waynesville Regional At Forney Field

Weather History for KTBN - July, 2013

Change the Weather History Date:

Thursday, July 4, 2013

  Actual Average Record
Temperature  
Mean Temperature 71 °F -  
Max Temperature 83 °F 84 °F 102 °F (2012)
Min Temperature 59 °F 68 °F 53 °F (2014)
Cooling Degree Days 6    
Growing Degree Days 21 (Base 50)    
Moisture  
Dew Point 61 °F    
Average Humidity 69    
Maximum Humidity 100    
Minimum Humidity 39    
Precipitation  
Precipitation 0.00 in - - ()
Sea Level Pressure  
Sea Level Pressure 30.05 in    
Wind  
Wind Speed 5 mph (SSE)    
Max Wind Speed 7 mph    
Max Gust Speed -    
Visibility 10 miles    
Events      
Averages and records for this station are not official NWS values.
T = Trace of Precipitation, MM = Missing Value Source: NWS Daily Summary

Daily Weather History Graph

Daily Weather History Graph

Search for Another Location

Airport or City:

Trip Planner

Search our weather history database for the weather conditions in past years. The results will help you decide how hot, cold, wet, or windy it might be!

Date:

Astronomy

Jul. 04, 2013 Rise Set
Actual Time 5:52 AM CDT 8:33 PM CDT
Civil Twilight 5:21 AM CDT 9:04 PM CDT
Nautical Twilight 4:42 AM CDT 9:43 PM CDT
Astronomical Twilight 3:58 AM CDT 10:27 PM CDT
Moon 3:07 AM CDT (7/4) 5:39 PM CDT (7/4)
Length of Visible Light 15h 43m
Length of Day
14h 41m
Waning Crescent, 11% of the Moon is Illuminated
Jul 4
Waning Crescent
Jul 8
New
Jul 15
First Quarter
Jul 22
Full
Jul 29
Last Quarter

Hourly Weather History & Observations

Time (CDT) Temp. Heat Index Dew Point Humidity Pressure Visibility Wind Dir Wind Speed Gust Speed Precip Events Conditions
12:58 AM 63.1 °F - 61.7 °F 95% 30.06 in 10.0 mi SSW 3.5 mph - N/A   Clear
1:58 AM 64.9 °F - 60.6 °F 86% 30.06 in 10.0 mi South 3.5 mph - N/A   Clear
2:58 AM 62.8 °F - 59.4 °F 89% 30.06 in 10.0 mi South 4.6 mph - N/A   Clear
3:58 AM 61.0 °F - 59.2 °F 94% 30.04 in 10.0 mi SE 6.9 mph - N/A   Clear
4:58 AM 60.8 °F - 59.0 °F 94% 30.05 in 10.0 mi SE 4.6 mph - N/A   Clear
5:58 AM 59.0 °F - 59.0 °F 100% 30.06 in 10.0 mi SSE 4.6 mph - N/A   Clear
6:58 AM 59.9 °F - 59.5 °F 99% 30.06 in 10.0 mi SE 6.9 mph - N/A   Clear
7:58 AM 66.6 °F - 59.7 °F 79% 30.06 in 10.0 mi SSE 5.8 mph - N/A   Clear
8:57 AM 73.4 °F - 60.8 °F 65% 30.10 in 10.0 mi Variable 2.3 mph - N/A   Light Drizzle
8:58 AM 73.4 °F - 60.8 °F 65% 30.09 in 10.0 mi Variable 2.3 mph - N/A   Light Drizzle
9:12 AM 75.2 °F - 60.8 °F 61% 30.10 in 10.0 mi South 5.8 mph - N/A   Clear
9:13 AM 75.2 °F - 60.8 °F 61% 30.10 in 10.0 mi South 5.8 mph - N/A   Light Drizzle
9:19 AM 73.4 °F - 62.6 °F 69% 30.10 in 10.0 mi SSE 6.9 mph - N/A   Clear
9:22 AM 73.4 °F - 62.6 °F 69% 30.10 in 10.0 mi SE 6.9 mph - N/A   Light Drizzle
9:23 AM 73.4 °F - 62.6 °F 69% 30.10 in 10.0 mi SE 6.9 mph - N/A   Clear
9:58 AM 76.6 °F - 59.4 °F 55% 30.09 in 10.0 mi Variable 4.6 mph - N/A   Clear
10:58 AM 78.6 °F - 60.1 °F 53% 30.08 in 10.0 mi Variable 5.8 mph - N/A   Clear
11:58 AM 80.8 °F 81.6 °F 61.0 °F 51% 30.09 in 10.0 mi Variable 4.6 mph - N/A   Clear
12:55 PM 81.3 °F 81.8 °F 59.7 °F 48% 30.05 in 10.0 mi Calm Calm - N/A   Partly Cloudy
1:55 PM 82.4 °F 81.7 °F 55.4 °F 39% 30.02 in 10.0 mi Calm Calm - N/A   Partly Cloudy
2:55 PM 82.9 °F 82.7 °F 58.1 °F 43% 30.00 in 10.0 mi Variable 5.8 mph - N/A   Scattered Clouds
3:55 PM 83.1 °F 82.7 °F 58.1 °F 42% 30.00 in 10.0 mi Variable 3.5 mph - N/A   Mostly Cloudy
4:55 PM 82.4 °F 82.5 °F 59.0 °F 45% 29.99 in 10.0 mi Variable 3.5 mph - N/A   Clear
5:55 PM 83.1 °F 83.2 °F 59.5 °F 45% 29.97 in 10.0 mi ESE 5.8 mph - N/A   Clear
6:55 PM 79.7 °F - 62.2 °F 55% 29.98 in 10.0 mi SSE 4.6 mph - N/A   Clear
7:58 PM 75.0 °F - 66.2 °F 74% 30.01 in 10.0 mi SE 3.5 mph - N/A   Partly Cloudy
8:55 PM 72.7 °F - 65.5 °F 78% 29.98 in 10.0 mi SE 4.6 mph - N/A   Clear
9:55 PM 71.6 °F - 66.2 °F 83% 29.99 in 10.0 mi SE 5.8 mph - N/A   Clear
10:55 PM 69.4 °F - 65.5 °F 87% 30.00 in 10.0 mi SE 5.8 mph - N/A   Partly Cloudy
11:56 PM 68.0 °F - 64.4 °F 88% 30.04 in 10.0 mi SE 4.6 mph - N/A   Clear